User: anonymous
Location: Caltech
(34.1382°N, 118.1253°W)
Time: 20:11:33
(UTC-07:00)
Language:

SO-50 - Orbit

View from above orbital plane
View from above orbital plane
View from above satellite
View from above satellite

Ground track
Ground track

The orbit data is extracted from the following two-line orbital elements,

1 27607U 02058C   14294.83221951  .00002113  00000-0  33117-3 0  5517
2 27607 064.5564 206.2193 0062850 337.7059 022.1312 14.74034869636149
Epoch (UTC): 21 October 2014 19:58:23
Eccentricity: 0.0062850
inclination: 64.5564°
perigee height: 604 km
apogee height: 692 km
right ascension of ascending node: 206.2193°
argument of perigee: 337.7059°
revolutions per day: 14.74034869
mean anomaly at epoch: 22.1312°
orbit number at epoch: 63614

The dashed part of the orbit path shows where the satellite is in the earth's shadow,  

DLR